Weather History for Oxford, NC

Change the Weather History Date:

Friday, February 14, 2014

  Actual Average (KTDF) Record (KTDF)
Temperature  
Mean Temperature 42 °F -  
Max Temperature 56 °F 49 °F 75 °F (1962)
Min Temperature 28 °F 28 °F 12 °F (1988)
Degree Days  
Heating Degree Days 23    
Moisture  
Dew Point 24 °F    
Average Humidity 54    
Maximum Humidity 83    
Minimum Humidity 20    
Precipitation  
Precipitation 0.00 in - - ()
Sea Level Pressure  
Sea Level Pressure 29.71 in    
Wind  
Wind Speed 8 mph (SW)    
Max Wind Speed 16 mph    
Max Gust Speed 25 mph    
Visibility 10 miles    
Events      
Averages and records for this station are not official NWS values.
T = Trace of Precipitation, MM = Missing Value Source: NWS Daily Summary

Daily Weather History Graph

Daily Weather History Graph

Search for Another Location

Airport:

Trip Planner

Search our weather history database for the weather conditions in past years. The results will help you decide how hot, cold, wet, or windy it might be!

Date:

Astronomy

Feb. 14, 2014 Rise Set
Actual Time 7:02 AM EST 5:54 PM EST
Civil Twilight 6:36 AM EST 6:20 PM EST
Nautical Twilight 6:06 AM EST 6:50 PM EST
Astronomical Twilight 5:36 AM EST 7:20 PM EST
Moon 5:54 PM EST (2/14) 6:29 AM EST (2/14)
Length of Visible Light 11h 43m
Length of Day
10h 51m
Full, 100% of the Moon is Illuminated
Feb 14
Full
Feb 14
Full
Feb 22
Last Quarter
Mar 1
New
Mar 8
First Quarter

Hourly Weather History & Observations

Time (EST) Temp. Windchill Dew Point Humidity Pressure Visibility Wind Dir Wind Speed Gust Speed Precip Events Conditions
12:15 AM 34.5 °F 28.6 °F 28.2 °F 78% 29.61 in 10.0 mi WSW 6.9 mph - N/A   Clear
12:35 AM 34.3 °F 29.2 °F 27.1 °F 75% 29.61 in 10.0 mi WSW 5.8 mph - N/A   Clear
12:55 AM 34.0 °F 28.0 °F 26.1 °F 73% 29.62 in 10.0 mi WSW 6.9 mph - N/A   Clear
1:15 AM 33.8 °F 27.7 °F 25.3 °F 71% 29.63 in 10.0 mi WSW 6.9 mph - N/A   Clear
1:35 AM 33.4 °F 28.1 °F 24.3 °F 69% 29.64 in 10.0 mi SW 5.8 mph - N/A   Clear
1:55 AM 32.5 °F 25.5 °F 24.4 °F 72% 29.64 in 10.0 mi SW 8.1 mph - N/A   Clear
2:15 AM 32.0 °F 25.6 °F 24.6 °F 74% 29.65 in 10.0 mi SW 6.9 mph - N/A   Clear
2:35 AM 31.6 °F 25.1 °F 24.3 °F 74% 29.65 in 10.0 mi SW 6.9 mph - N/A   Clear
2:55 AM 29.7 °F 22.8 °F 23.5 °F 78% 29.65 in 10.0 mi SSW 6.9 mph - N/A   Clear
3:15 AM 29.1 °F 21.3 °F 23.5 °F 80% 29.64 in 10.0 mi SSW 8.1 mph - N/A   Clear
3:35 AM 31.3 °F 23.3 °F 24.4 °F 76% 29.66 in 10.0 mi SW 9.2 mph - N/A   Clear
3:55 AM 30.7 °F 22.0 °F 23.9 °F 76% 29.67 in 10.0 mi SW 10.4 mph - N/A   Clear
4:15 AM 30.6 °F 21.2 °F 24.3 °F 77% 29.68 in 10.0 mi SW 11.5 mph - N/A   Clear
4:35 AM 31.1 °F 21.9 °F 24.6 °F 77% 29.68 in 10.0 mi SW 11.5 mph - N/A   Clear
4:55 AM 31.1 °F 21.9 °F 24.6 °F 77% 29.69 in 10.0 mi SW 11.5 mph - N/A   Clear
5:15 AM 32.0 °F 23.0 °F 24.6 °F 74% 29.70 in 10.0 mi SW 11.5 mph - N/A   Clear
5:35 AM 30.6 °F 23.8 °F 23.5 °F 75% 29.70 in 10.0 mi SSW 6.9 mph - N/A   Clear
5:55 AM 29.5 °F 21.8 °F 23.5 °F 79% 29.70 in 10.0 mi SW 8.1 mph - N/A   Clear
6:15 AM 29.8 °F 22.2 °F 23.5 °F 77% 29.71 in 10.0 mi SW 8.1 mph - N/A   Clear
6:35 AM 28.6 °F 19.9 °F 23.0 °F 80% 29.72 in 10.0 mi SSW 9.2 mph - N/A   Clear
6:55 AM 28.0 °F 20.8 °F 23.4 °F 83% 29.72 in 10.0 mi SSW 6.9 mph - N/A   Clear
7:15 AM 30.2 °F 21.3 °F 23.5 °F 76% 29.72 in 10.0 mi SW 10.4 mph - N/A   Clear
7:35 AM 31.1 °F 22.4 °F 23.4 °F 73% 29.73 in 10.0 mi SW 10.4 mph - N/A   Clear
7:55 AM 32.5 °F 26.2 °F 23.9 °F 70% 29.74 in 10.0 mi SW 6.9 mph - N/A   Clear
8:15 AM 34.3 °F 27.0 °F 24.1 °F 66% 29.74 in 10.0 mi SW 9.2 mph - N/A   Clear
8:35 AM 37.9 °F 32.1 °F 24.1 °F 57% 29.75 in 10.0 mi WSW 8.1 mph - N/A   Clear
8:55 AM 39.6 °F 33.5 °F 24.3 °F 54% 29.75 in 10.0 mi SW 9.2 mph - N/A   Clear
9:15 AM 40.5 °F 34.1 °F 24.3 °F 52% 29.76 in 10.0 mi SW 10.4 mph - N/A   Clear
9:35 AM 41.0 °F 33.9 °F 25.0 °F 53% 29.74 in 10.0 mi SW 12.7 mph - N/A   Clear
9:55 AM 42.3 °F 35.9 °F 25.0 °F 50% 29.75 in 10.0 mi SW 11.5 mph 17.3 mph N/A   Clear
10:15 AM 43.0 °F 37.2 °F 25.3 °F 50% 29.74 in 10.0 mi SW 10.4 mph - N/A   Clear
10:35 AM 44.8 °F 39.4 °F 25.7 °F 47% 29.74 in 10.0 mi SW 10.4 mph - N/A   Clear
10:55 AM 47.1 °F - 25.2 °F 42% 29.75 in 10.0 mi SW 10.4 mph - N/A   Clear
11:15 AM 48.4 °F - 24.3 °F 39% 29.75 in 10.0 mi WSW 13.8 mph 18.4 mph N/A   Clear
11:35 AM 49.5 °F - 23.9 °F 37% 29.74 in 10.0 mi SW 11.5 mph 20.7 mph N/A   Clear
11:55 AM 50.5 °F - 22.3 °F 33% 29.74 in 10.0 mi WSW 12.7 mph 19.6 mph N/A   Clear
12:15 PM 51.3 °F - 21.4 °F 31% 29.74 in 10.0 mi WSW 10.4 mph 19.6 mph N/A   Clear
12:35 PM 51.8 °F - 20.5 °F 29% 29.73 in 10.0 mi SW 12.7 mph 25.3 mph N/A   Clear
12:55 PM 52.2 °F - 19.9 °F 28% 29.73 in 10.0 mi WSW 10.4 mph 21.9 mph N/A   Clear
1:15 PM 53.4 °F - 19.9 °F 27% 29.73 in 10.0 mi SW 13.8 mph 17.3 mph N/A   Clear
1:35 PM 54.1 °F - 18.1 °F 24% 29.72 in 10.0 mi WSW 12.7 mph 19.6 mph N/A   Clear
1:55 PM 54.9 °F - 16.3 °F 22% 29.72 in 10.0 mi WSW 9.2 mph 20.7 mph N/A   Clear
2:15 PM 55.0 °F - 16.7 °F 22% 29.72 in 10.0 mi West 9.2 mph 17.3 mph N/A   Clear
2:35 PM 55.4 °F - 15.3 °F 21% 29.72 in 10.0 mi SW 16.1 mph 25.3 mph N/A   Clear
2:55 PM 56.1 °F - 15.3 °F 20% 29.72 in 10.0 mi WSW 9.2 mph - N/A   Clear
3:15 PM 55.8 °F - 15.6 °F 21% 29.72 in 10.0 mi SW 16.1 mph 23.0 mph N/A   Clear
3:35 PM 55.9 °F - 15.6 °F 21% 29.73 in 10.0 mi SW 8.1 mph - N/A   Clear
3:55 PM 55.6 °F - 15.8 °F 21% 29.73 in 10.0 mi SW 11.5 mph 19.6 mph N/A   Clear
4:15 PM 55.6 °F - 15.8 °F 21% 29.73 in 10.0 mi WSW 6.9 mph - N/A   Clear
4:35 PM 53.2 °F - 18.5 °F 26% 29.72 in 10.0 mi SW 5.8 mph - N/A   Clear
4:55 PM 53.6 °F - 18.1 °F 25% 29.72 in 10.0 mi SW 8.1 mph - N/A   Clear
5:15 PM 51.1 °F - 19.2 °F 29% 29.73 in 10.0 mi SW 5.8 mph - N/A   Clear
5:35 PM 50.5 °F - 19.2 °F 29% 29.74 in 10.0 mi SW 5.8 mph - N/A   Clear
5:55 PM 50.9 °F - 17.2 °F 26% 29.73 in 10.0 mi SSW 3.5 mph - N/A   Clear
6:15 PM 50.0 °F - 17.2 °F 27% 29.74 in 10.0 mi Calm Calm - N/A   Clear
6:35 PM 44.1 °F 42.5 °F 21.7 °F 41% 29.74 in 10.0 mi South 3.5 mph - N/A   Clear
6:55 PM 47.1 °F - 17.8 °F 31% 29.74 in 10.0 mi Calm Calm - N/A   Clear
7:15 PM 44.1 °F 40.1 °F 25.5 °F 48% 29.75 in 10.0 mi South 6.9 mph - N/A   Clear
7:35 PM 44.6 °F 40.7 °F 27.9 °F 52% 29.74 in 10.0 mi South 6.9 mph - N/A   Clear
7:55 PM 43.7 °F 39.1 °F 29.3 °F 57% 29.75 in 10.0 mi South 8.1 mph - N/A   Clear
8:15 PM 43.3 °F 38.6 °F 30.6 °F 61% 29.75 in 10.0 mi South 8.1 mph - N/A   Clear
8:35 PM 42.4 °F 37.5 °F 30.9 °F 64% 29.75 in 10.0 mi SSW 8.1 mph - N/A   Clear
8:55 PM 42.1 °F 37.1 °F 31.1 °F 65% 29.74 in 10.0 mi South 8.1 mph - N/A   Clear
9:15 PM 41.9 °F 36.9 °F 31.1 °F 66% 29.74 in 10.0 mi South 8.1 mph - N/A   Clear
9:35 PM 41.0 °F 36.4 °F 31.1 °F 68% 29.73 in 10.0 mi South 6.9 mph - N/A   Clear
9:55 PM 40.5 °F 35.1 °F 31.1 °F 69% 29.74 in 10.0 mi South 8.1 mph - N/A   Clear
10:15 PM 40.5 °F 36.5 °F 31.1 °F 69% 29.72 in 10.0 mi South 5.8 mph - N/A   Clear
10:35 PM 40.5 °F 36.5 °F 31.1 °F 69% 29.72 in 10.0 mi South 5.8 mph - N/A   Clear
10:55 PM 40.5 °F 35.1 °F 31.1 °F 69% 29.73 in 10.0 mi SSW 8.1 mph - N/A   Scattered Clouds
11:15 PM 42.1 °F 37.1 °F 31.1 °F 65% 29.73 in 10.0 mi SSW 8.1 mph - N/A   Mostly Cloudy
11:35 PM 42.1 °F 36.1 °F 30.9 °F 65% 29.72 in 10.0 mi SSW 10.4 mph - N/A   Overcast
11:55 PM 41.2 °F 37.3 °F 31.1 °F 67% 29.72 in 10.0 mi South 5.8 mph - N/A   Overcast